Tracking 25612 objects as of 20-May-2022
HD Live streaming from Space Station
objects crossing your sky now

SL-12 R/B(2)

Track SL-12 R/B(2) now!


NORAD ID: 26855
Int'l Code: 2001-025C
Perigee: 7,700.0 km
Apogee: 35,660.1 km
Inclination: 15.4 °
Period: 779.3 minutes
Semi major axis: 28051 km
RCS: 1.9952 m2 (large)
Launch date: June 16, 2001
Source: Commonwealth of Independent States (former USSR) (CIS)
Launch site: TYURATAM MISSILE AND SPACE COMPLEX (TTMTR)

Note: This is a ROCKET BODY
aabbcc
Your satellite tracking list
Your tracking list is empty




NASA's NSSDC Master Catalog

Two Line Element Set (TLE):
1 26855U 01025C   22139.04942112 -.00000120  00000-0  00000+0 0  9997
2 26855  15.4086 260.0988 4983776 342.4283 200.2575  1.84790206141256
Source of the keplerian elements: AFSPC